Regional Weather Roundup
Issued by NWS Grand Forks, ND

Home | Current Version | Previous Version | Text Only | Print | Product List | Glossary On
Versions: 1 2 3 4 5 6 7 8 9 10 11 12 13 14 15 16 17 18 19 20 21 22 23 24 25 26 27 28 29 30 31 32 33 34 35 36 37 38 39 40 41 42 43 44 45 46 47 48 49 50
000
ASUS43 KFGF 252131
RWRFGF
PRAIRIE TO PINES  WEATHER ROUNDUP
NATIONAL WEATHER SERVICE EASTERN NORTH DAKOTA/GRAND FORKS ND
400 PM CDT FRI JUL 25 2014

 **SATELLITE DATA USED TO AUGMENT SKY COVER AT AUTOMATED STATIONS**
 *****  WEATHER ACROSS EASTERN NORTH DAKOTA  *****

CITY           SKY/WX    TMP DP  RH WIND       PRES   REMARKS
GRAND FORKS    MOSUNNY   81  60  48 NW14      29.73R
GRAND FRKS AFB SUNNY     81  57  43 NW15      29.75S
GRAND FRKS NWS   N/A     81 N/A N/A NW9         N/A
DEVILS LAKE    SUNNY     77  55  47 NW9       29.76F
FARGO          CLOUDY    80  68  66 NW8       29.75S
WAHPETON ARPT  CLOUDY    77  64  65 CALM      29.76F
$$

 ***** WEATHER ACROSS CENTRAL AND WESTERN NORTH DAKOTA  *****

CITY           SKY/WX    TMP DP  RH WIND       PRES   REMARKS
BISMARCK       SUNNY     82  48  30 W8        29.83F
MINOT          SUNNY     77  46  33 W16       29.79F
JAMESTOWN      SUNNY     79  50  36 N12       29.80F
MINOT AFB      SUNNY     76  52  43 W9        29.78F
GARRISON         N/A     75  52  44 SW10      29.82F
WILLISTON      SUNNY     83  37  19 SW20G28   29.77F
DICKINSON      SUNNY     81  43  26 SW13      29.84F
HETTINGER      SUNNY     81  44  27 CALM      29.88F
$$

 *****  OTHER AIRPORT OBSERVATIONS IN OUR AREA  *****

CITY           SKY/WX    TMP DP  RH WIND       PRES   REMARKS
WALHALLA         N/A     77  50  38 W14G20      N/A
GRAFTON AIRPOR FAIR      81  54  39 W15       29.72S
VALLEY CITY AR FAIR      79  52  38 N12       29.79F
CANDO          FAIR      75  54  46 W17       29.78S
CAVALIER APRT  FAIR      79  54  41 W14G24    29.72S
GWINNER        PTCLDY    81  70  69 N12       29.79S
ROLLA            N/A     73  48  40 W15G25    29.78F
 ***** THE ABOVE OBSERVATIONS ARE NON NWS ARE NOT QUALITY
       CONTROLLED AND MAY MIS-REPORT RAIN FOR SNOW...
$$

  *****  WEATHER ACROSS NORTHERN MINNESOTA  *****

CITY           SKY/WX    TMP DP  RH WIND       PRES   REMARKS
FLAG ISLAND    SUNNY     73  64  73 S7        29.71S
WARROAD        MOSUNNY   79  70  73 SW5       29.71F
ROSEAU         MOSUNNY   79  70  73 SW5       29.70F
HALLOCK        SUNNY     81  54  39 NW15      29.70S
THF RVR FALLS  CLOUDY    79  68  69 W6        29.73F
BAUDETTE       CLOUDY    75  65  70 S7        29.74S
WASKISH        SUNNY     77  66  69 W3        29.74F
CROOKSTON      MOSUNNY   79  70  73 SW6       29.74S
$$
  *****  WEATHER ACROSS CENTRAL AND WEST MINNESOTA  *****

CITY           SKY/WX    TMP DP  RH WIND       PRES   REMARKS
FOSSTON        MOSUNNY   79  66  65 SW7       29.76F
BEMIDJI        PTSUNNY   76  66  71 CALM      29.75F
PARK RAPIDS    CLOUDY    78  66  66 W3        29.76S
ELBOW LAKE     CLOUDY    74  69  81 N3        29.77F
WADENA         PTSUNNY   75  66  73 SW6       29.77S
DETROIT LAKES  PTSUNNY   77  68  73 W5        29.78F
MOORHEAD       PTSUNNY   79  72  78 NW6       29.76S
FERGUS FALLS   MOSUNNY   77  64  65 S5        29.76F
MORRIS MN      SUNNY     79  70  73 N7        29.77S
STAPLES        CLOUDY    75  66  73 SW6       29.78S
$$
  *****  WEATHER ELSEWHERE ACROSS MINNESOTA  *****

CITY           SKY/WX    TMP DP  RH WIND       PRES   REMARKS
DULUTH         CLOUDY    69  63  81 SE7       29.80S
INTRNTL FALLS  CLOUDY    74  64  71 S6        29.74F
ELY            CLOUDY    70  63  78 SW5       29.79F
CLOQUET        PTSUNNY   72  64  78 SE5       29.79S
WHEATON        MOSUNNY   75  66  73 NW6       29.79S
BRAINERD       CLOUDY    77  66  68 W7        29.78R
HIBBING        CLOUDY    74  63  68 CALM      29.78F
ALEXANDRIA     CLOUDY    75  67  76 NW7       29.80S HAZE
SAINT CLOUD    CLOUDY    80  67  64 SW8       29.77S
MINNEAPOLIS    CLOUDY    80  67  64 S12       29.78S
$$

  *****  WEATHER ACROSS SOUTH DAKOTA  *****

CITY           SKY/WX    TMP DP  RH WIND       PRES   REMARKS
SIOUX FALLS    PTSUNNY   86  72  62 W6        29.78F HX  92
BROOKINGS      NOT AVBL
WATERTOWN      PTSUNNY   77  68  73 NW10      29.81R
HURON          CLOUDY    79  68  69 N16       29.79F
SISSETON         N/A     75  69  81 NW12      29.78S
ABERDEEN       CLOUDY    77  68  73 NE8       29.80F
MITCHELL       MOSUNNY   87  71  58 N13       29.79R HX  93
PIERRE         SUNNY     88  46  23 N12G20    29.82S
MOBRIDGE       SUNNY     84  48  28 N10       29.81F
RAPID CITY     SUNNY     79  50  36 SE8       29.91F
$$

  *****  SOME WEATHER IN NEARBY STATES *****

CITY           SKY/WX    TMP DP  RH WIND       PRES   REMARKS
GLASGOW MT     MOSUNNY   83  35  18 W23G31    29.76F
GREAT FALLS MT SUNNY     79  32  18 W25G38    29.89F
CHEYENNE WY    LGT RAIN  81  45  28 S20G32    30.11F
SCOTTSBLUFF NE PTSUNNY   85  51  31 S12       29.97F
OMAHA NE       MOSUNNY   92  75  57 E7        29.73S HX 103
DES MOINES IA  PTSUNNY   79  67  66 S12       29.80F
DAVENPORT IA   CLOUDY    73  64  73 SE6       29.90S
CHICAGO IL     CLOUDY    74  56  53 SW13      29.94F
EAU CLAIRE WI  CLOUDY    74  65  73 S8        29.83F
LA CROSSE WI   CLOUDY    76  64  66 S10       29.86S
$$

  *****  SOME NATIONAL WEATHER *****

CITY           SKY/WX    TMP DP  RH WIND       PRES   REMARKS
LA GUARDIA NY  MOSUNNY   82  52  35 E8G17     29.95F
RALEIGH NC     PTSUNNY   82  65  56 SE7       30.02S
ATLANTA GA     PTSUNNY   87  66  49 W10       29.99F
NEW ORLEANS LA PTSUNNY   87  75  67 S12       29.97F HX  96
OKLAHOMA CITY  SUNNY     99  65  32 S18G26    29.90F HX 102
ALBUQUERQUE NM MOSUNNY   96  43  16 VRB5      30.15F HX  92
SALT LAKE CITY PTSUNNY   90  44  20 NW13      30.00F
LOS ANGELES CA PTSUNNY   78  64  61 SW9       29.91S
BOISE ID       SUNNY     80  36  20 W12G20    30.04F
SEATTLE WA     PTSUNNY   70  51  51 NW7G16    30.14F
$$

*** WEATHER ACROSS MANITOBA...SASKATCHEWAN AND ONTARIO ***
                ***ONTARIO***

CITY           SKY/WX    TMP DP  RH WIND       PRES   REMARKS
GERALDTON      MOSUNNY   79  50  36 W7        29.74F
THUNDER BAY    TSTM      63  61  94 E3        29.80R FOG
SIOUX LOOKOUT  PTSUNNY   73  59  60 S2        29.74F
TORONTO        PTSUNNY   77  52  41 W13       29.95F
BIG TROUT LK   PTSUNNY   68  52  56 NE7       29.74S
PICKLE LAKE    PTSUNNY   79  50  36 W5        29.71F
DRYDEN         PTSUNNY   75  61  60 S5        29.74F
KENORA         CLOUDY    73  63  68 S9        29.73R
$$
                *** MANITOBA***

CITY           SKY/WX    TMP DP  RH WIND       PRES   REMARKS
BRANDON        MOSUNNY   77  52  41 W17G28    29.72S
DAUPHIN        SUNNY     77  50  38 W15G24    29.66S
ISLAND LAKE    MOSUNNY   77  55  47 NE6       29.71S
PILOT MOUND      N/A     75  48  38 W14G24      N/A
THE PAS        MOSUNNY   73  64  73 SE8       29.61
THOMPSON       MOSUNNY   75  50  41 SE13      29.75S
WINNIPEG       MOSUNNY   81  50  34 W16       29.68S
LYNN LAKE      SUNNY     77  52  41 E18       29.75S
CHURCHILL      CLOUDY    50  45  81 NE16      29.95R
GILLAM         PTSUNNY   66  54  63 NE14      29.81S
$$
                ***SASKATCHEWAN***

CITY           SKY/WX    TMP DP  RH WIND       PRES   REMARKS
ESTEVAN        MOSUNNY   75  54  46 W12G18    29.76F
KINDERSLEY     PTSUNNY   61  57  88 W18G25    29.49
LLOYDMINSTER   PTSUNNY   57  52  82 NE9G17    29.57R
PRINCE ALBERT  CLOUDY    66  55  68 S10       29.56S
REGINA         PTSUNNY   75  50  41 SW21G33   29.67F
YORKTON        SUNNY     73  46  38 SW15G21   29.67F
N. BATTLEFORD  LGT RAIN  55  54  94 N14G20    29.45F
LA RONGE       MOSUNNY   75  55  50 NE10      29.59S
SASKATOON      LGT RAIN  59  55  88 S15G23    29.53F
SWIFT CURRENT  LGT RAIN  57  50  77 W30G44    29.68R
$$
NOTE: THESE ARE AUTOMATED STATIONS WITH LIMITED QUALITY CONTROL
      "FAIR" INDICATES FEW OR NO CLOUDS BELOW 12,000 FEET WITH NO
      SIGNIFICANT WEATHER AND/OR OBSTRUCTIONS TO VISIBILITY.
      SKY/WX - SKY CONDITION AND SIGNIFICANT WEATHER.
      TMP - AIR TEMPERATURE.    DP   - DEWPOINT TEMPERATURE.
      RH  - RELATIVE HUMIDITY.  PRES - PRESSURE.
      HX  - HEAT INDEX.         WCI  - WIND CHILL INDEX.
$


USA.gov is the U.S. government's official web portal to all federal, state and local government web resources and services.